Flag for France Weather past 2 weeks in Montpellier, France

Now
75 °F

Broken clouds.


Feels Like: 77 °F
Forecast: 66 / 71 °F
Wind: 24 mph from Southeast

Location: Montpellier Airport

Current Time: Sep 17, 2014 at 12:27:29 PM

Latest Report: Sep 17, 2014 at 12:00 PM


Visibility: N/A

Pressure: 29.83 "Hg

Humidity: 74%

Dew point: 66 °F

Location of MontpellierLocation

Historic Weather in Montpellier — Graph

°F

Montpellier temperature yesterday

Maximum temperature yesterday: 77 °F (at 1:00 PM)
Minimum temperature yesterday: 61 °F (at 2:30 AM)
Average temperature yesterday: 69 °F

Past Weeks' High & Low Weather Summary

 TemperatureHumidityPressure
High88 °F (Sep 2, 5:30 PM)94% (Sep 5, 6:30 AM)30.04 "Hg (Sep 5, 6:30 AM)
Low57 °F (Sep 4, 6:30 AM)19% (Sep 2, 5:30 PM)29.80 "Hg (Sep 10, 5:30 PM)
Average72 °F66%29.92 "Hg
* Reported Sep 2 11:00 AM — Sep 17 11:30 AM, Montpellier, Weather by CustomWeather, © 2014

Note: Actual official high and low records may vary slightly from our data, if they occured in-between our weather recording intervals... More about our weather records

Advertising

Montpellier weather history for previous 24 hours

 ConditionsComfort  
Time TempWeatherWind HumidityBarometerVisibility
11:30 AM
Sep 17
75 °FThunderstorms. Partly sunny.21 mph74%29.86 "HgN/A
11:00 AM75 °FThunderstorms. Partly sunny.23 mph69%29.83 "HgN/A
10:30 AM73 °FThunderstorms. Partly sunny.23 mph78%29.83 "HgN/A
10:00 AM73 °FOvercast.21 mph74%29.83 "HgN/A
9:30 AM73 °FPartly sunny.24 mph78%29.80 "HgN/A
9:00 AM73 °FPartly sunny.23 mph78%29.83 "HgN/A
8:30 AM72 °FPartly sunny.16 mph83%29.83 "HgN/A
8:00 AM72 °FPassing clouds.17 mph83%29.83 "HgN/A
7:30 AM72 °FPassing clouds.18 mph83%29.83 "HgN/A
7:00 AM72 °FPassing clouds.20 mph83%29.80 "HgN/A
6:30 AM72 °FPassing clouds.22 mph83%29.80 "HgN/A
6:00 AM72 °FPartly cloudy.20 mph83%29.83 "HgN/A
5:30 AM72 °FPassing clouds.20 mph83%29.83 "HgN/A
5:00 AM72 °FPassing clouds.18 mph83%29.83 "HgN/A
4:30 AM72 °FPassing clouds.20 mph83%29.83 "HgN/A
4:00 AM72 °FDrizzle. Mostly cloudy.20 mph88%29.86 "HgN/A
3:30 AM72 °FMostly cloudy.18 mph88%29.86 "HgN/A
3:00 AM72 °FMostly cloudy.14 mph88%29.86 "HgN/A
2:30 AM72 °FPassing clouds.14 mph88%29.89 "HgN/A
2:00 AM72 °FPassing clouds.14 mph88%29.89 "HgN/A
1:30 AM72 °FPassing clouds.15 mph83%29.89 "HgN/A
1:08 AM72 °FPassing clouds.16 mph88%29.89 "HgN/A
12:30 AM72 °FPassing clouds.17 mph88%29.89 "HgN/A
12:00 AM72 °FPartly cloudy.18 mph88%29.89 "HgN/A
11:30 PM
Sep 16
72 °FPartly cloudy.18 mph88%29.89 "HgN/A
11:00 PM72 °FPartly cloudy.16 mph88%29.89 "HgN/A
10:30 PM72 °FPartly cloudy.12 mph88%29.89 "HgN/A
10:00 PM72 °FClear.10 mph88%29.89 "Hg10 mi
9:30 PM72 °FClear.9 mph88%29.89 "Hg10 mi
9:00 PM72 °FPartly cloudy.10 mph83%29.89 "HgN/A
8:30 PM72 °FBroken clouds.8 mph83%29.89 "HgN/A
8:00 PM72 °FPartly sunny.7 mph83%29.89 "HgN/A
7:30 PM72 °FPartly sunny.7 mph83%29.89 "HgN/A
7:00 PM73 °FSunny.7 mph78%29.89 "Hg10 mi
6:30 PM73 °FSunny.8 mph78%29.89 "Hg10 mi
6:06 PM73 °FSunny.8 mph78%29.89 "Hg10 mi
5:30 PM75 °FSunny.10 mph74%29.89 "Hg10 mi
4:43 PM73 °FSunny.10 mph78%29.92 "Hg10 mi
4:00 PM75 °FSunny.13 mph74%29.92 "Hg10 mi
3:30 PM77 °FSunny.13 mph69%29.92 "Hg10 mi
3:00 PM77 °FSunny.14 mph69%29.92 "Hg10 mi
2:00 PM77 °FBroken clouds.12 mph65%29.95 "HgN/A
1:30 PM75 °FBroken clouds.6 mph69%29.95 "HgN/A
1:00 PM77 °FBroken clouds.7 mph65%29.95 "HgN/A
12:30 PM75 °FBroken clouds.9 mph69%29.95 "HgN/A
12:00 PM75 °FBroken clouds.9 mph69%29.95 "HgN/A
Weather by CustomWeather, © 2014

See weather overviewHow to use our weather pages